Terug naar catalogus

STARLINK-31536

ActiefCommunicatieVLEO
NORAD 59192·PAYLOAD·🇺🇸 United States

Gelanceerd Mar 10, 2024 vanaf Cape Canaveral Space Force Station

Loading…

Volgende Passages (komende 24 uur)

TLE

VersSource: CelesTrak SupGP

Epoch: Sep 14, 2026, 20:59 UTC

1 59192C 24045Q   26257.87479167 -.00045049  00000+0 -16318-2 0  2573
2 59192  42.9991 104.1171 0001227 272.6284 127.8822 15.27598131    13

Volg STARLINK-31536 in realtime met AllMySat

Download on the App Store